Location: Newark
(35.5300°N, 14.3000°E)
Time: 15:22:19
(UTC+00:00)

Transit 4A - Pass Details

Date: 28 November 2019
Orbit: 871 x 973 km, 66.8° (Epoch: 17 January)

Event Time Altitude Azimuth Distance (km) Brightness Sun altitude
Rises 18:14:58 0° 202° (SSW) 3,632 11.4 -28.9°
Reaches altitude 10° 18:17:32 10° 202° (SSW) 2,679 10.6 -29.5°
Enters shadow 18:22:43 63° 190° (S) 1,047 8.1 -30.5°
